Location: Croydon
(51.3762°N, 0.0982°W)
Time: 16:51:09
(UTC+01:00)

VELOX 1 - Visible Passes

Search period start: 23 April 2019 00:00
Search period end: 03 May 2019 00:00
Orbit: 628 x 645 km, 98.2° (Epoch: 23 April)

Date Brightness Start Highest point End Pass type
(mag) Time Alt. Az. Time Alt. Az. Time Alt. Az.
23 Apr ? 01:12:15 37° ENE 01:12:35 37° ENE 01:16:39 10° N visible
23 Apr ? 02:49:45 28° WNW 02:49:45 28° WNW 02:52:56 10° NW visible
23 Apr ? 23:58:55 10° ENE 23:59:24 10° NE 23:59:53 10° NE visible
24 Apr ? 01:34:49 58° ENE 01:34:55 59° ENE 01:39:15 10° N visible
24 Apr ? 03:12:19 18° W 03:12:19 18° W 03:14:50 10° NW visible
25 Apr ? 00:19:53 13° E 00:21:31 15° NE 00:24:00 10° NNE visible
25 Apr ? 01:57:24 86° NW 01:57:24 86° NW 02:01:44 10° NNW visible
25 Apr ? 03:34:54 12° W 03:34:54 12° W 03:36:03 10° WNW visible
26 Apr ? 00:42:27 19° E 00:43:41 22° ENE 00:47:03 10° N visible
26 Apr ? 02:19:58 54° W 02:19:58 54° W 02:24:06 10° NNW visible
27 Apr ? 01:05:02 30° E 01:05:55 32° ENE 01:09:51 10° N visible
27 Apr ? 02:42:33 33° W 02:42:33 33° W 02:46:20 10° NNW visible
28 Apr ? 01:27:37 46° E 01:28:14 50° ENE 01:32:29 10° N visible
28 Apr ? 03:05:07 22° W 03:05:07 22° W 03:08:20 10° NW visible
29 Apr ? 00:12:48 10° E 00:14:53 13° NE 00:16:59 10° NNE visible
29 Apr ? 01:50:11 71° SE 01:50:36 81° ENE 01:55:00 10° NNW visible
29 Apr ? 03:27:42 14° W 03:27:42 14° W 03:29:53 10° NW visible
30 Apr ? 00:35:15 15° E 00:37:02 19° ENE 00:40:11 10° NNE visible
30 Apr ? 02:12:45 62° SW 02:13:03 64° WSW 02:17:26 10° NNW visible
01 May ? 00:57:50 24° E 00:59:16 28° ENE 01:03:01 10° N visible
01 May ? 02:35:20 39° WSW 02:35:33 39° W 02:39:42 10° NNW visible
02 May ? 01:20:25 36° ESE 01:21:32 43° ENE 01:25:43 10° N visible
02 May ? 02:57:55 25° W 02:58:08 25° W 03:01:47 10° NW visible
